| time (UTC) | temp F | wind direction | speed MPH | gust MPH | rain 1hr in | rain 24hr in | rain mn in | humidity % | barometer mb |
| 20260504185756 | 67 | 176 | 4.0 | 11.0 | 0.00 | 0.00 | 0.00 | 48 | 1007.4 |
| 20260504185256 | 67 | 182 | 5.0 | 11.0 | 0.00 | 0.00 | 0.00 | 49 | 1007.4 |
| 20260504184755 | 67 | 166 | 4.0 | 10.0 | 0.00 | 0.00 | 0.00 | 50 | 1007.5 |
| 20260504184256 | 68 | 172 | 4.0 | 8.0 | 0.00 | 0.00 | 0.00 | 48 | 1007.6 |
| 20260504183755 | 67 | 194 | 4.0 | 9.0 | 0.00 | 0.00 | 0.00 | 48 | 1007.7 |
| 20260504183255 | 67 | 196 | 5.0 | 9.0 | 0.00 | 0.00 | 0.00 | 46 | 1007.7 |
| 20260504182756 | 68 | 179 | 4.0 | 9.0 | 0.00 | 0.00 | 0.00 | 47 | 1007.7 |
| 20260504182256 | 67 | 172 | 5.0 | 11.0 | 0.00 | 0.00 | 0.00 | 46 | 1007.6 |
| 20260504181757 | 67 | 172 | 5.0 | 12.0 | 0.00 | 0.00 | 0.00 | 46 | 1007.6 |
| 20260504181256 | 67 | 176 | 5.0 | 12.0 | 0.00 | 0.00 | 0.00 | 47 | 1007.6 |
| 20260504181015 | 67 | 179 | 5.0 | 11.0 | 0.00 | 0.00 | 0.00 | 45 | 1007.7 |
| 20260504180257 | 67 | 176 | 5.0 | 11.0 | 0.00 | 0.00 | 0.00 | 43 | 1007.7 |
| 20260504175754 | 67 | 169 | 5.0 | 11.0 | 0.00 | 0.00 | 0.00 | 44 | 1007.6 |
| 20260504175254 | 67 | 176 | 5.0 | 11.0 | 0.00 | 0.00 | 0.00 | 42 | 1007.7 |
| 20260504174754 | 67 | 188 | 5.0 | 11.0 | 0.00 | 0.00 | 0.00 | 44 | 1007.7 |
| 20260504174516 | 67 | 144 | 4.0 | 12.0 | 0.00 | 0.00 | 0.00 | 44 | 1007.7 |
| 20260504173754 | 67 | 201 | 4.0 | 12.0 | 0.00 | 0.00 | 0.00 | 45 | 1007.8 |
| 20260504173254 | 67 | 210 | 4.0 | 11.0 | 0.00 | 0.00 | 0.00 | 44 | 1007.9 |
| 20260504173015 | 67 | 179 | 4.0 | 11.0 | 0.00 | 0.00 | 0.00 | 45 | 1007.9 |
| 20260504172254 | 67 | 180 | 4.0 | 12.0 | 0.00 | 0.00 | 0.00 | 44 | 1008.0 |
| 20260504171754 | 66 | 194 | 4.0 | 12.0 | 0.00 | 0.00 | 0.00 | 45 | 1008.1 |
| 20260504171254 | 66 | 196 | 5.0 | 10.0 | 0.00 | 0.00 | 0.00 | 44 | 1008.0 |
| 20260504171015 | 66 | 191 | 5.0 | 11.0 | 0.00 | 0.00 | 0.00 | 43 | 1008.2 |
| 20260504170254 | 66 | 176 | 4.0 | 11.0 | 0.00 | 0.00 | 0.00 | 44 | 1008.3 |
| 20260504160249 | 66 | 227 | 4.0 | 13.0 | 0.00 | 0.00 | 0.00 | 39 | 1008.9 |
| 20260504151010 | 65 | 268 | 4.0 | 9.0 | 0.00 | 0.00 | 0.00 | 40 | 1009.4 |
| 20260504150247 | 66 | 269 | 4.0 | 9.0 | 0.00 | 0.00 | 0.00 | 40 | 1009.6 |
| 20260504141242 | 63 | 287 | 4.0 | 10.0 | 0.00 | 0.00 | 0.00 | 43 | 1009.6 |
| 20260504140741 | 63 | 219 | 4.0 | 9.0 | 0.00 | 0.00 | 0.00 | 44 | 1009.6 |
| 20260504140241 | 64 | 270 | 4.0 | 9.0 | 0.00 | 0.00 | 0.00 | 43 | 1009.6 |
| 20260504130740 | 60 | 130 | 3.0 | 9.0 | 0.00 | 0.00 | 0.00 | 50 | 1010.0 |
| 20260504130239 | 60 | 177 | 3.0 | 9.0 | 0.00 | 0.00 | 0.00 | 50 | 1010.0 |
| 20260504120240 | 55 | 177 | 3.0 | 7.0 | 0.00 | 0.00 | 0.00 | 57 | 1010.2 |
| 20260504110239 | 51 | 189 | 2.0 | 5.0 | 0.00 | 0.00 | 0.00 | 59 | 1010.2 |
| 20260504100229 | 48 | 202 | 2.0 | 4.0 | 0.00 | 0.00 | 0.00 | 61 | 1010.0 |
| 20260504081719 | 50 | 255 | 2.0 | 5.0 | 0.00 | 0.00 | 0.00 | 52 | 1009.3 |
| 20260504081220 | 50 | 233 | 1.0 | 3.0 | 0.00 | 0.00 | 0.00 | 53 | 1009.4 |
| 20260504080719 | 50 | 314 | 1.0 | 5.0 | 0.00 | 0.00 | 0.00 | 53 | 1009.3 |
| 20260504080220 | 50 | 174 | 2.0 | 7.0 | 0.00 | 0.00 | 0.00 | 52 | 1009.2 |
| 20260504070221 | 50 | 227 | 1.0 | 4.0 | 0.00 | 0.00 | 0.00 | 53 | 1008.8 |
| 20260504060211 | 49 | 200 | 0.0 | 2.0 | 0.00 | 0.00 | 0.00 | 62 | 1008.9 |
| 20260504050708 | 49 | 181 | 1.0 | 3.0 | 0.00 | 0.00 | 0.00 | 60 | 1008.6 |
| 20260504050425 | 49 | 186 | 1.0 | 2.0 | 0.00 | 0.00 | 0.00 | 60 | 1008.6 |
| 20260504045708 | 49 | 214 | 1.0 | 2.0 | 0.00 | 0.00 | 0.00 | 60 | 1008.6 |
| 20260504045207 | 50 | 218 | 1.0 | 3.0 | 0.00 | 0.00 | 0.00 | 60 | 1008.6 |
| 20260504044708 | 49 | 215 | 1.0 | 3.0 | 0.00 | 0.00 | 0.00 | 60 | 1008.6 |
| 20260504044209 | 49 | 150 | 1.0 | 3.0 | 0.00 | 0.00 | 0.00 | 60 | 1008.5 |
| 20260504043708 | 49 | 192 | 1.0 | 3.0 | 0.00 | 0.00 | 0.00 | 61 | 1008.5 |
| 20260504043209 | 49 | 174 | 1.0 | 2.0 | 0.00 | 0.00 | 0.00 | 61 | 1008.5 |
| 20260504042708 | 48 | 199 | 0.0 | 2.0 | 0.00 | 0.00 | 0.00 | 62 | 1008.5 |
| 20260504042209 | 48 | 242 | 1.0 | 2.0 | 0.00 | 0.00 | 0.00 | 62 | 1008.5 |
| 20260504041708 | 48 | 0 | 1.0 | 2.0 | 0.00 | 0.00 | 0.00 | 61 | 1008.4 |
| 20260504041205 | 48 | 213 | 0.0 | 2.0 | 0.00 | 0.00 | 0.00 | 60 | 1008.4 |
| 20260504040706 | 48 | 196 | 0.0 | 1.0 | 0.00 | 0.00 | 0.00 | 60 | 1008.4 |
| 20260504040205 | 48 | 191 | 0.0 | 2.0 | 0.00 | 0.00 | 0.00 | 59 | 1008.4 |
| 20260504035707 | 48 | 0 | 0.0 | 2.0 | 0.00 | 0.00 | 0.00 | 59 | 1008.4 |
| 20260504035205 | 47 | 0 | 1.0 | 2.0 | 0.00 | 0.00 | 0.00 | 59 | 1008.4 |
| 20260504034703 | 47 | 251 | 1.0 | 2.0 | 0.00 | 0.00 | 0.00 | 60 | 1008.3 |
| 20260504034203 | 46 | 0 | 1.0 | 2.0 | 0.00 | 0.00 | 0.00 | 60 | 1008.3 |
| 20260504033703 | 46 | 235 | 0.0 | 1.0 | 0.00 | 0.00 | 0.00 | 64 | 1008.3 |
| 20260504033203 | 46 | 0 | 0.0 | 1.0 | 0.00 | 0.00 | 0.00 | 64 | 1008.2 |
| 20260504032924 | 46 | 0 | 0.0 | 1.0 | 0.00 | 0.00 | 0.00 | 64 | 1008.2 |
| 20260504032422 | 46 | 0 | 0.0 | 1.0 | 0.00 | 0.00 | 0.00 | 63 | 1008.2 |
| 20260504031703 | 46 | 0 | 0.0 | 1.0 | 0.00 | 0.00 | 0.00 | 61 | 1008.3 |
| 20260504031203 | 47 | 0 | 0.0 | 1.0 | 0.00 | 0.00 | 0.00 | 61 | 1008.3 |
| 20260504031151 | 47 | 356 | 0.0 | 1.0 | 0.00 | 0.00 | 0.00 | 58 | 1008.2 |
| 20260504030203 | 47 | 0 | 0.0 | 2.0 | 0.00 | 0.00 | 0.00 | 59 | 1008.3 |
| 20260504025704 | 48 | 0 | 0.0 | 2.0 | 0.00 | 0.00 | 0.00 | 59 | 1008.3 |
| 20260504025422 | 48 | 197 | 0.0 | 1.0 | 0.00 | 0.00 | 0.00 | 57 | 1008.2 |
| 20260504024700 | 49 | 348 | 0.0 | 1.0 | 0.00 | 0.00 | 0.00 | 56 | 1008.2 |
| 20260504024200 | 49 | 0 | 0.0 | 1.0 | 0.00 | 0.00 | 0.00 | 54 | 1008.2 |
| 20260504023701 | 49 | 0 | 0.0 | 1.0 | 0.00 | 0.00 | 0.00 | 52 | 1008.3 |
| 20260504023158 | 50 | 0 | 0.0 | 2.0 | 0.00 | 0.00 | 0.00 | 54 | 1008.4 |
| 20260504022657 | 51 | 0 | 0.0 | 2.0 | 0.00 | 0.00 | 0.00 | 49 | 1008.3 |
| 20260504022418 | 51 | 235 | 0.0 | 2.0 | 0.00 | 0.00 | 0.00 | 51 | 1008.3 |
| 20260504021658 | 51 | 0 | 0.0 | 3.0 | 0.00 | 0.00 | 0.00 | 48 | 1008.3 |
| 20260504021157 | 52 | 306 | 1.0 | 3.0 | 0.00 | 0.00 | 0.00 | 47 | 1008.3 |
| 20260504020158 | 52 | 212 | 2.0 | 3.0 | 0.00 | 0.00 | 0.00 | 44 | 1008.3 |
| 20260504015658 | 52 | 233 | 1.0 | 3.0 | 0.00 | 0.00 | 0.00 | 44 | 1008.2 |
| 20260504015158 | 52 | 216 | 1.0 | 2.0 | 0.00 | 0.00 | 0.00 | 46 | 1008.2 |
| 20260504015142 | 52 | 276 | 1.0 | 3.0 | 0.00 | 0.00 | 0.00 | 45 | 1008.2 |
| 20260504014419 | 52 | 282 | 2.0 | 4.0 | 0.00 | 0.00 | 0.00 | 44 | 1008.2 |
| 20260504013656 | 52 | 223 | 2.0 | 4.0 | 0.00 | 0.00 | 0.00 | 44 | 1008.1 |
| 20260504013416 | 52 | 200 | 2.0 | 4.0 | 0.00 | 0.00 | 0.00 | 45 | 1008.0 |
| 20260504012656 | 52 | 242 | 1.0 | 2.0 | 0.00 | 0.00 | 0.00 | 48 | 1008.0 |
| 20260504012155 | 52 | 254 | 1.0 | 2.0 | 0.00 | 0.00 | 0.00 | 44 | 1007.9 |
| 20260504011917 | 52 | 208 | 0.0 | 2.0 | 0.00 | 0.00 | 0.00 | 43 | 1007.9 |
| 20260504011156 | 52 | 241 | 0.0 | 1.0 | 0.00 | 0.00 | 0.00 | 42 | 1007.8 |
| 20260504010655 | 53 | 0 | 0.0 | 2.0 | 0.00 | 0.00 | 0.00 | 42 | 1007.8 |
| 20260504010156 | 53 | 190 | 1.0 | 2.0 | 0.00 | 0.00 | 0.00 | 42 | 1007.7 |
| 20260504005656 | 53 | 200 | 1.0 | 2.0 | 0.00 | 0.00 | 0.00 | 42 | 1007.6 |
| 20260504005157 | 53 | 209 | 1.0 | 2.0 | 0.00 | 0.00 | 0.00 | 41 | 1007.6 |
| 20260504004656 | 53 | 212 | 0.0 | 2.0 | 0.00 | 0.00 | 0.00 | 42 | 1007.6 |
| 20260504004156 | 54 | 0 | 0.0 | 2.0 | 0.00 | 0.00 | 0.00 | 41 | 1007.5 |
| 20260504003653 | 54 | 224 | 1.0 | 2.0 | 0.00 | 0.00 | 0.00 | 41 | 1007.4 |
| 20260504003415 | 54 | 226 | 1.0 | 2.0 | 0.00 | 0.00 | 0.00 | 39 | 1007.3 |
| 20260504002651 | 55 | 211 | 0.0 | 2.0 | 0.00 | 0.00 | 0.00 | 38 | 1007.2 |
| 20260504002150 | 55 | 0 | 0.0 | 2.0 | 0.00 | 0.00 | 0.00 | 38 | 1007.2 |
| 20260504001648 | 55 | 208 | 0.0 | 2.0 | 0.00 | 0.00 | 0.00 | 37 | 1007.1 |
| 20260504001147 | 56 | 233 | 1.0 | 4.0 | 0.00 | 0.00 | 0.00 | 37 | 1007.1 |
| 20260504000912 | 56 | 0 | 2.0 | 4.0 | 0.00 | 0.00 | 0.00 | 36 | 1007.0 |
| 20260504000145 | 56 | 281 | 2.0 | 4.0 | 0.00 | 0.00 | 0.00 | 35 | 1006.9 |
| 20260503235645 | 56 | 297 | 1.0 | 3.0 | 0.00 | 0.00 | 0.00 | 35 | 1006.9 |
| 20260503235145 | 56 | 220 | 1.0 | 4.0 | 0.00 | 0.00 | 0.00 | 35 | 1006.9 |
| 20260503234903 | 57 | 263 | 1.0 | 5.0 | 0.00 | 0.00 | 0.00 | 34 | 1006.8 |
| 20260503234145 | 57 | 223 | 2.0 | 5.0 | 0.00 | 0.00 | 0.00 | 33 | 1006.8 |
| 20260503233646 | 57 | 241 | 1.0 | 5.0 | 0.00 | 0.00 | 0.00 | 33 | 1006.7 |
| 20260503233145 | 58 | 246 | 2.0 | 9.0 | 0.00 | 0.00 | 0.00 | 32 | 1006.6 |
| 20260503232645 | 58 | 307 | 2.0 | 9.0 | 0.00 | 0.00 | 0.00 | 32 | 1006.6 |
| 20260503232145 | 58 | 0 | 2.0 | 7.0 | 0.00 | 0.00 | 0.00 | 32 | 1006.5 |
| 20260503231645 | 58 | 251 | 2.0 | 6.0 | 0.00 | 0.00 | 0.00 | 32 | 1006.5 |
| 20260503231145 | 58 | 205 | 2.0 | 5.0 | 0.00 | 0.00 | 0.00 | 32 | 1006.4 |
| 20260503230644 | 58 | 34 | 2.0 | 7.0 | 0.00 | 0.00 | 0.00 | 32 | 1006.4 |
| 20260503230144 | 58 | 281 | 2.0 | 7.0 | 0.00 | 0.00 | 0.00 | 31 | 1006.4 |
| 20260503225644 | 59 | 71 | 2.0 | 6.0 | 0.00 | 0.00 | 0.00 | 30 | 1006.4 |
| 20260503225144 | 59 | 338 | 2.0 | 8.0 | 0.00 | 0.00 | 0.00 | 30 | 1006.4 |
| 20260503224644 | 59 | 38 | 3.0 | 9.0 | 0.00 | 0.00 | 0.00 | 30 | 1006.4 |
| 20260503224145 | 60 | 249 | 3.0 | 9.0 | 0.00 | 0.00 | 0.00 | 30 | 1006.4 |
| 20260503223645 | 60 | 246 | 2.0 | 9.0 | 0.00 | 0.00 | 0.00 | 30 | 1006.3 |
| 20260503223145 | 60 | 208 | 2.0 | 7.0 | 0.00 | 0.00 | 0.00 | 30 | 1006.3 |
| 20260503222644 | 60 | 215 | 2.0 | 8.0 | 0.00 | 0.00 | 0.00 | 29 | 1006.3 |
| 20260503222145 | 60 | 219 | 2.0 | 9.0 | 0.00 | 0.00 | 0.00 | 30 | 1006.3 |
| 20260503221645 | 60 | 37 | 2.0 | 9.0 | 0.00 | 0.00 | 0.00 | 30 | 1006.3 |
| 20260503221141 | 60 | 47 | 2.0 | 9.0 | 0.00 | 0.00 | 0.00 | 30 | 1006.2 |
| 20260503220640 | 60 | 18 | 3.0 | 9.0 | 0.00 | 0.00 | 0.00 | 29 | 1006.3 |
| 20260503220138 | 61 | 27 | 3.0 | 7.0 | 0.00 | 0.00 | 0.00 | 29 | 1006.2 |
| 20260503215635 | 61 | 241 | 3.0 | 9.0 | 0.00 | 0.00 | 0.00 | 30 | 1006.2 |
| 20260503215135 | 60 | 339 | 3.0 | 10.0 | 0.00 | 0.00 | 0.00 | 30 | 1006.3 |
| 20260503214854 | 60 | 304 | 5.0 | 10.0 | 0.00 | 0.00 | 0.00 | 29 | 1006.2 |
| 20260503214135 | 60 | 204 | 4.0 | 10.0 | 0.00 | 0.00 | 0.00 | 30 | 1006.1 |
| 20260503213635 | 60 | 233 | 3.0 | 9.0 | 0.00 | 0.00 | 0.00 | 30 | 1006.1 |
| 20260503213135 | 60 | 341 | 3.0 | 9.0 | 0.00 | 0.00 | 0.00 | 30 | 1006.0 |
| 20260503212636 | 60 | 45 | 3.0 | 10.0 | 0.00 | 0.00 | 0.00 | 31 | 1006.0 |
| 20260503212135 | 60 | 144 | 3.0 | 10.0 | 0.00 | 0.00 | 0.00 | 30 | 1006.0 |
| 20260503211635 | 60 | 349 | 2.0 | 9.0 | 0.00 | 0.00 | 0.00 | 30 | 1006.0 |
| 20260503211357 | 60 | 223 | 3.0 | 7.0 | 0.00 | 0.00 | 0.00 | 31 | 1006.0 |
| 20260503210635 | 60 | 40 | 3.0 | 7.0 | 0.00 | 0.00 | 0.00 | 31 | 1006.0 |
| 20260503210136 | 60 | 223 | 3.0 | 9.0 | 0.00 | 0.00 | 0.00 | 31 | 1006.1 |
| 20260503205632 | 60 | 343 | 3.0 | 10.0 | 0.00 | 0.00 | 0.00 | 31 | 1006.0 |
| 20260503205618 | 60 | 44 | 3.0 | 10.0 | 0.00 | 0.00 | 0.00 | 30 | 1006.0 |
| 20260503204629 | 60 | 343 | 3.0 | 9.0 | 0.00 | 0.00 | 0.00 | 31 | 1005.9 |
| 20260503204130 | 60 | 16 | 3.0 | 9.0 | 0.00 | 0.00 | 0.00 | 31 | 1005.9 |
| 20260503203629 | 59 | 353 | 3.0 | 7.0 | 0.00 | 0.00 | 0.00 | 32 | 1005.9 |
| 20260503203356 | 59 | 341 | 3.0 | 7.0 | 0.00 | 0.00 | 0.00 | 33 | 1006.0 |
| 20260503202630 | 59 | 27 | 3.0 | 9.0 | 0.00 | 0.00 | 0.00 | 32 | 1006.0 |
| 20260503202356 | 59 | 186 | 4.0 | 9.0 | 0.00 | 0.00 | 0.00 | 32 | 1006.1 |
| 20260503201630 | 59 | 276 | 3.0 | 9.0 | 0.00 | 0.00 | 0.00 | 32 | 1006.0 |
| 20260503201130 | 59 | 214 | 3.0 | 11.0 | 0.00 | 0.00 | 0.00 | 33 | 1006.1 |
| 20260503200630 | 59 | 329 | 4.0 | 11.0 | 0.00 | 0.00 | 0.00 | 32 | 1006.0 |
| 20260503200131 | 59 | 187 | 3.0 | 13.0 | 0.00 | 0.00 | 0.00 | 33 | 1006.1 |
| 20260503195631 | 59 | 269 | 4.0 | 13.0 | 0.00 | 0.00 | 0.00 | 34 | 1006.1 |
| 20260503195130 | 58 | 297 | 3.0 | 9.0 | 0.00 | 0.00 | 0.00 | 34 | 1006.3 |
| 20260503194627 | 58 | 219 | 3.0 | 9.0 | 0.00 | 0.00 | 0.00 | 35 | 1006.3 |
| 20260503194128 | 58 | 17 | 4.0 | 9.0 | 0.00 | 0.00 | 0.00 | 35 | 1006.4 |
| 20260503193625 | 58 | 359 | 4.0 | 8.0 | 0.00 | 0.00 | 0.00 | 35 | 1006.4 |
| 20260503193351 | 58 | 25 | 3.0 | 9.0 | 0.00 | 0.00 | 0.00 | 35 | 1006.4 |
| 20260503192625 | 58 | 268 | 4.0 | 11.0 | 0.00 | 0.00 | 0.00 | 35 | 1006.6 |
| 20260503192125 | 57 | 268 | 4.0 | 11.0 | 0.00 | 0.00 | 0.00 | 36 | 1006.4 |
| 20260503191625 | 57 | 66 | 4.0 | 9.0 | 0.00 | 0.00 | 0.00 | 36 | 1006.4 |
| 20260503191610 | 57 | 45 | 3.0 | 13.0 | 0.00 | 0.00 | 0.00 | 36 | 1006.5 |
| 20260503190625 | 57 | 265 | 4.0 | 13.0 | 0.00 | 0.00 | 0.00 | 36 | 1006.7 |
| 20260503190125 | 57 | 356 | 4.0 | 12.0 | 0.00 | 0.00 | 0.00 | 37 | 1006.6 |